Temp
-12 -12 -11 -12 -12 -12 -11 -12 -12 -11 -11 -11 -11 -11 -10 -10 -10 -10 -10 -10 -10 -10 -10 -10 -11 -11 -11 -11 -12 -12 -12 -13 -12 -12 -12 -12 -12 -12 -12 -12 -11 -12 -12 -12 -13 -13 -13 -13 -13 -13 -13 -12 -12 -13
-12 -12 -12 -12 -12 -12 -12 -12 -11 -12 -11 -12 -11 -11 -11 -11 -10 -10 -10 -10 -10 -10 -10 -11 -11 -11 -11 -11 -11 -11 -12 -12 -13 -13 -12 -12 -12 -12 -12 -12 -12 -11 -12 -12 -13 -13 -12 -12 -13 -13 -13 -13 -13 -13
-12 -12 -12 -12 -12 -12 -12 -12 -12 -12 -12 -12 -12 -12 -11 -12 -12 -11 -11 -12 -11 -10 -10 -10 -11 -11 -11 -11 -11 -11 -12 -12 -13 -13 -13 -13 -12 -13 -12 -12 -12 -12 -12 -12 -11 -13 -12 -12 -13 -13 -13 -13 -13 -13
-12 -13 -12 -13 -13 -13 -13 -12 -13 -13 -13 -13 -12 -12 -12 -12 -13 -13 -12 -12 -12 -11 -10 -10 -11 -11 -11 -11 -12 -12 -12 -13 -13 -13 -13 -13 -13 -13 -13 -13 -12 -13 -12 -12 -11 -13 -11 -12 -12 -12 -13 -13 -13 -13
-12 -12 -12 -13 -13 -13 -13 -14 -14 -13 -13 -13 -13 -13 -13 -13 -13 -14 -14 -12 -12 -13 -12 -11 -12 -12 -12 -12 -12 -13 -13 -13 -13 -13 -13 -13 -13 -13 -12 -12 -12 -14 -13 -12 -12 -13 -12 -12 -12 -12 -12 -13 -13 -13
-13 -13 -13 -13 -14 -14 -15 -15 -15 -15 -15 -15 -15 -14 -14 -14 -15 -14 -14 -13 -13 -14 -14 -12 -11 -13 -13 -12 -13 -13 -13 -13 -14 -14 -13 -13 -13 -13 -11 -11 -13 -15 -13 -12 -12 -12 -12 -13 -13 -13 -12 -13 -13 -13
-15 -15 -15 -15 -15 -15 -15 -16 -16 -16 -16 -16 -16 -15 -15 -15 -15 -16 -15 -13 -14 -15 -15 -15 -13 -11 -12 -13 -14 -14 -14 -14 -14 -14 -13 -13 -14 -13 -11 -10 -16 -14 -14 -14 -13 -13 -12 -13 -12 -13 -13 -13 -13 -14
-19 -18 -18 -18 -17 -17 -17 -17 -17 -17 -17 -17 -17 -16 -16 -15 -15 -16 -16 -16 -16 -17 -17 -17 -14 -13 -13 -13 -14 -15 -14 -14 -14 -14 -13 -14 -14 -13 -10 -13 -14 -15 -14 -14 -14 -13 -13 -13 -13 -13 -13 -13 -13 -14
-21 -21 -21 -21 -20 -20 -20 -19 -19 -19 -19 -19 -18 -18 -17 -16 -15 -16 -18 -19 -19 -18 -18 -17 -15 -14 -13 -13 -14 -14 -15 -14 -15 -14 -14 -14 -14 -11 -12 -14 -14 -15 -14 -13 -14 -14 -14 -13 -12 -13 -13 -13 -13 -14
-22 -23 -22 -22 -22 -22 -22 -21 -21 -21 -21 -20 -20 -19 -19 -18 -17 -17 -18 -21 -20 -20 -19 -17 -15 -15 -14 -13 -14 -15 -15 -15 -15 -15 -15 -14 -13 -12 -14 -14 -14 -14 -13 -13 -13 -14 -14 -13 -13 -13 -13 -14 -14 -14
-24 -24 -24 -23 -23 -23 -23 -23 -23 -22 -23 -23 -22 -21 -21 -21 -20 -19 -19 -21 -22 -21 -20 -18 -16 -16 -16 -16 -16 -17 -16 -16 -16 -15 -15 -13 -12 -13 -15 -15 -14 -14 -13 -14 -14 -14 -14 -13 -13 -14 -14 -14 -14 -15
-26 -26 -25 -25 -25 -25 -25 -24 -24 -24 -24 -24 -24 -23 -24 -24 -23 -23 -24 -23 -21 -20 -19 -18 -17 -18 -18 -18 -17 -18 -17 -18 -17 -16 -15 -13 -13 -14 -15 -15 -14 -14 -14 -14 -14 -14 -14 -14 -14 -14 -14 -14 -14 -14
-28 -27 -27 -27 -27 -27 -26 -26 -26 -25 -25 -26 -26 -25 -26 -25 -25 -24 -23 -22 -19 -17 -20 -21 -21 -20 -20 -19 -19 -19 -19 -18 -18 -17 -15 -13 -14 -16 -16 -15 -15 -15 -15 -15 -14 -14 -14 -14 -14 -15 -15 -14 -14 -15
-29 -29 -29 -28 -28 -28 -28 -28 -28 -27 -27 -27 -27 -27 -27 -26 -24 -23 -22 -22 -24 -24 -23 -24 -22 -21 -21 -21 -20 -20 -20 -19 -19 -16 -14 -15 -17 -16 -16 -16 -16 -15 -15 -15 -15 -14 -14 -14 -15 -14 -15 -15 -15 -15
-30 -30 -29 -29 -29 -29 -29 -29 -29 -29 -29 -29 -29 -28 -25 -24 -25 -25 -24 -24 -25 -25 -25 -25 -24 -23 -22 -22 -21 -21 -20 -20 -19 -17 -16 -17 -18 -18 -17 -16 -15 -16 -16 -16 -15 -15 -15 -14 -15 -15 -15 -15 -15 -15
-30 -30 -30 -30 -30 -29 -30 -30 -30 -30 -30 -30 -28 -27 -26 -26 -25 -25 -26 -26 -27 -27 -27 -26 -26 -25 -24 -23 -22 -21 -21 -21 -20 -19 -19 -19 -19 -18 -18 -16 -16 -17 -16 -16 -16 -16 -15 -15 -15 -15 -16 -16 -16 -16
-31 -30 -30 -30 -30 -30 -31 -31 -32 -32 -32 -29 -27 -28 -28 -27 -27 -27 -27 -27 -27 -27 -27 -27 -27 -26 -25 -24 -24 -22 -22 -21 -22 -21 -21 -20 -20 -19 -18 -17 -16 -17 -17 -16 -16 -16 -16 -16 -16 -17 -17 -17 -17 -17
-31 -31 -31 -31 -31 -32 -31 -32 -32 -32 -31 -29 -28 -28 -29 -29 -28 -28 -28 -28 -29 -28 -27 -27 -28 -27 -27 -26 -25 -23 -23 -23 -23 -22 -21 -21 -20 -19 -19 -18 -18 -17 -18 -17 -17 -16 -16 -16 -17 -18 -17 -17 -17 -17
-31 -32 -32 -32 -32 -33 -33 -32 -32 -31 -30 -30 -30 -30 -29 -29 -29 -28 -29 -29 -29 -28 -28 -27 -28 -27 -26 -26 -25 -24 -24 -24 -23 -22 -21 -21 -20 -20 -20 -19 -19 -19 -18 -18 -17 -17 -17 -18 -18 -18 -18 -17 -17 -17
-32 -32 -33 -33 -33 -33 -33 -32 -31 -31 -30 -29 -30 -30 -29 -29 -29 -29 -29 -29 -28 -29 -29 -28 -27 -27 -26 -25 -25 -25 -24 -24 -23 -23 -23 -22 -22 -21 -21 -20 -19 -19 -19 -18 -18 -18 -18 -18 -18 -18 -18 -17 -17 -18
-33 -33 -33 -34 -34 -34 -34 -33 -31 -30 -30 -30 -30 -29 -29 -29 -29 -29 -28 -28 -29 -29 -28 -27 -26 -26 -26 -26 -25 -24 -24 -24 -24 -23 -23 -22 -22 -22 -21 -20 -20 -19 -19 -19 -19 -19 -19 -19 -18 -19 -19 -18 -18 -18
-33 -34 -34 -34 -34 -34 -33 -31 -31 -31 -31 -29 -30 -30 -29 -28 -28 -28 -29 -29 -28 -27 -27 -26 -26 -26 -26 -25 -25 -25 -25 -24 -24 -23 -23 -23 -22 -21 -21 -20 -20 -19 -19 -19 -19 -19 -18 -19 -19 -19 -19 -18 -18 -19
-34 -34 -34 -34 -34 -33 -31 -32 -32 -31 -30 -29 -30 -30 -29 -29 -29 -30 -29 -28 -27 -27 -27 -27 -26 -26 -25 -25 -25 -25 -24 -24 -23 -23 -23 -23 -22 -22 -21 -20 -20 -20 -20 -20 -19 -19 -20 -20 -20 -20 -20 -19 -19 -20
-35 -35 -35 -34 -33 -32 -32 -32 -32 -31 -30 -29 -29 -29 -28 -29 -29 -28 -27 -27 -27 -27 -26 -26 -26 -25 -25 -25 -24 -25 -24 -23 -23 -23 -23 -23 -22 -22 -21 -20 -20 -19 -20 -20 -20 -21 -21 -21 -21 -21 -20 -21 -22 -22
-34 -34 -33 -33 -32 -32 -31 -31 -31 -31 -30 -29 -29 -28 -28 -28 -27 -27 -27 -26 -26 -26 -26 -26 -25 -25 -25 -24 -24 -24 -23 -23 -22 -22 -22 -22 -22 -22 -21 -21 -21 -21 -21 -21 -21 -21 -21 -21 -21 -21 -22 -23 -23 -25
-33 -32 -32 -30 -32 -32 -31 -30 -30 -30 -29 -28 -28 -28 -28 -27 -26 -26 -25 -25 -25 -25 -25 -24 -24 -23 -23 -24 -23 -23 -23 -23 -22 -22 -22 -22 -21 -21 -21 -21 -21 -21 -22 -21 -21 -21 -22 -22 -23 -23 -23 -24 -26 -26
-32 -31 -31 -32 -32 -32 -31 -30 -30 -29 -29 -28 -28 -27 -26 -26 -25 -25 -25 -24 -24 -24 -24 -24 -23 -23 -23 -22 -22 -22 -22 -21 -21 -22 -22 -22 -22 -22 -22 -22 -22 -22 -21 -21 -22 -22 -23 -23 -23 -24 -24 -25 -25 -25
-32 -32 -31 -31 -31 -31 -29 -29 -29 -29 -28 -27 -26 -26 -25 -25 -25 -24 -24 -24 -24 -24 -24 -23 -23 -23 -22 -22 -22 -22 -22 -22 -22 -22 -22 -22 -22 -22 -22 -22 -21 -21 -22 -22 -23 -23 -23 -23 -23 -25 -24 -25 -25 -24
-31 -31 -30 -29 -29 -29 -28 -28 -27 -27 -26 -26 -26 -25 -25 -25 -25 -24 -24 -23 -23 -24 -24 -23 -23 -23 -22 -22 -22 -22 -22 -22 -22 -22 -22 -22 -21 -21 -21 -21 -22 -22 -23 -23 -23 -23 -23 -24 -24 -24 -24 -24 -24 -24
-30 -30 -29 -28 -27 -27 -27 -27 -27 -26 -26 -26 -26 -25 -25 -25 -24 -24 -24 -23 -23 -23 -23 -23 -23 -23 -22 -22 -22 -23 -23 -22 -22 -22 -22 -21 -21 -22 -22 -22 -23 -23 -24 -23 -23 -23 -24 -24 -24 -24 -24 -24 -24 -24
-29 -28 -28 -27 -27 -27 -27 -27 -27 -26 -26 -25 -25 -25 -24 -24 -24 -24 -24 -24 -24 -24 -24 -24 -23 -23 -23 -23 -23 -22 -22 -22 -23 -22 -22 -22 -22 -21 -22 -23 -24 -24 -24 -23 -23 -24 -24 -24 -24 -24 -24 -23 -24 -23
-29 -28 -28 -27 -27 -27 -26 -26 -26 -26 -26 -25 -25 -24 -24 -24 -24 -24 -24 -24 -24 -24 -24 -24 -23 -23 -23 -23 -22 -22 -23 -23 -22 -22 -22 -22 -22 -22 -23 -23 -23 -24 -24 -24 -24 -24 -23 -23 -24 -23 -23 -24 -24 -23
-28 -27 -27 -27 -27 -27 -27 -27 -26 -26 -26 -25 -25 -24 -24 -24 -24 -24 -24 -23 -24 -24 -24 -23 -23 -23 -23 -23 -23 -23 -23 -22 -22 -22 -23 -23 -23 -23 -23 -23 -23 -23 -23 -23 -23 -23 -23 -23 -23 -23 -24 -24 -23 -23
Height
5710 5712 5712 5715 5716 5718 5721 5724 5726 5727 5728 5728 5728 5727 5726 5726 5726 5726 5726 5726 5727 5726 5725 5724 5723 5723 5719 5717 5715 5714 5714 5713 5710 5708 5706 5706 5705 5703 5701 5699 5696 5692 5690 5688 5685 5682 5681 5680 5679 5678 5677 5675 5674 5673
5689 5692 5695 5697 5698 5700 5700 5703 5708 5710 5712 5713 5713 5712 5712 5711 5710 5711 5712 5712 5712 5713 5713 5711 5712 5711 5710 5708 5705 5704 5704 5701 5699 5699 5699 5697 5697 5696 5694 5694 5691 5687 5684 5682 5681 5678 5673 5673 5672 5672 5670 5669 5669 5668
5666 5669 5672 5675 5677 5679 5682 5682 5683 5685 5691 5693 5694 5696 5696 5696 5694 5694 5696 5694 5695 5697 5699 5699 5699 5699 5699 5695 5693 5693 5693 5690 5690 5687 5686 5686 5686 5687 5687 5687 5685 5681 5675 5675 5673 5672 5668 5666 5664 5664 5663 5662 5662 5660
5639 5643 5647 5650 5653 5656 5657 5660 5662 5664 5664 5669 5672 5674 5674 5675 5676 5675 5677 5679 5676 5677 5678 5682 5683 5684 5684 5684 5682 5680 5680 5680 5679 5677 5675 5675 5675 5675 5676 5676 5677 5674 5668 5666 5667 5664 5661 5660 5658 5656 5655 5655 5654 5653
5609 5614 5617 5622 5624 5628 5632 5634 5636 5639 5641 5643 5646 5652 5652 5654 5652 5651 5654 5661 5659 5657 5661 5667 5665 5666 5669 5668 5666 5666 5667 5667 5666 5665 5665 5665 5665 5663 5664 5663 5668 5665 5660 5656 5658 5653 5653 5653 5650 5649 5647 5645 5644 5644
5577 5581 5586 5590 5594 5597 5601 5604 5607 5611 5613 5616 5620 5625 5629 5631 5632 5624 5630 5641 5641 5639 5639 5646 5650 5651 5651 5650 5651 5652 5653 5653 5651 5651 5652 5653 5656 5651 5650 5651 5658 5651 5646 5646 5648 5645 5646 5644 5642 5640 5639 5637 5635 5634
5544 5550 5552 5557 5562 5566 5570 5573 5578 5582 5586 5589 5594 5601 5604 5606 5605 5600 5606 5620 5616 5612 5615 5616 5626 5636 5636 5636 5637 5637 5638 5637 5635 5634 5638 5642 5643 5639 5640 5644 5644 5638 5636 5637 5639 5637 5638 5634 5634 5631 5630 5628 5625 5624
5516 5520 5525 5527 5530 5534 5539 5544 5548 5551 5556 5560 5565 5571 5577 5579 5579 5575 5585 5586 5590 5589 5592 5587 5607 5619 5620 5619 5620 5621 5622 5619 5619 5619 5625 5627 5627 5627 5630 5638 5632 5625 5625 5625 5626 5625 5627 5626 5623 5621 5619 5617 5615 5613
5489 5493 5497 5501 5505 5507 5509 5514 5520 5525 5530 5534 5537 5541 5546 5548 5556 5562 5565 5562 5564 5567 5563 5572 5591 5600 5602 5606 5605 5604 5604 5599 5600 5605 5608 5608 5612 5611 5625 5621 5618 5613 5608 5612 5611 5612 5613 5613 5611 5610 5609 5608 5606 5604
5465 5468 5472 5476 5479 5482 5486 5490 5492 5497 5503 5508 5514 5517 5517 5526 5534 5539 5536 5530 5534 5540 5544 5558 5578 5579 5584 5586 5586 5589 5581 5578 5579 5589 5585 5588 5598 5606 5607 5600 5599 5597 5595 5598 5598 5600 5599 5600 5597 5597 5597 5596 5595 5593
5440 5445 5449 5452 5456 5459 5462 5465 5469 5475 5481 5482 5484 5491 5496 5496 5503 5505 5503 5502 5506 5513 5528 5549 5556 5562 5563 5566 5566 5563 5561 5557 5558 5568 5564 5571 5584 5594 5587 5583 5582 5581 5581 5584 5585 5585 5584 5587 5585 5584 5585 5584 5583 5582
5418 5422 5426 5430 5434 5437 5440 5444 5448 5453 5456 5457 5462 5465 5469 5472 5476 5477 5477 5477 5479 5496 5510 5526 5541 5543 5543 5544 5543 5545 5543 5537 5540 5547 5547 5556 5577 5575 5572 5568 5568 5568 5569 5570 5573 5572 5571 5572 5571 5571 5571 5570 5568 5568
5398 5402 5405 5409 5413 5415 5419 5423 5427 5429 5432 5435 5437 5440 5441 5446 5448 5451 5456 5458 5466 5486 5501 5514 5519 5518 5520 5523 5523 5523 5514 5516 5521 5525 5534 5555 5559 5557 5553 5554 5552 5555 5556 5557 5558 5561 5559 5558 5558 5557 5556 5556 5555 5552
5379 5383 5386 5390 5394 5397 5401 5405 5408 5407 5410 5411 5412 5415 5417 5422 5427 5436 5451 5457 5461 5469 5480 5485 5489 5491 5494 5500 5501 5494 5491 5495 5497 5508 5530 5546 5540 5538 5537 5540 5541 5541 5544 5544 5545 5546 5546 5546 5545 5544 5542 5542 5542 5541
5361 5365 5369 5372 5377 5381 5384 5387 5389 5386 5387 5387 5388 5390 5398 5411 5416 5426 5432 5440 5446 5451 5458 5463 5466 5470 5473 5472 5470 5471 5469 5469 5481 5506 5524 5524 5520 5519 5520 5524 5526 5524 5526 5529 5532 5532 5531 5532 5531 5530 5529 5528 5528 5526
5345 5348 5352 5357 5361 5364 5367 5369 5369 5367 5363 5365 5368 5376 5385 5390 5400 5409 5415 5420 5425 5433 5436 5440 5445 5446 5445 5447 5447 5444 5450 5458 5482 5497 5501 5499 5498 5501 5504 5506 5508 5509 5512 5512 5514 5517 5517 5517 5516 5514 5513 5513 5513 5513
5327 5333 5340 5341 5345 5348 5350 5351 5351 5348 5345 5347 5358 5365 5368 5374 5381 5388 5395 5402 5409 5409 5412 5420 5418 5422 5423 5420 5423 5430 5441 5462 5470 5476 5475 5477 5480 5484 5486 5487 5489 5491 5497 5500 5499 5499 5499 5498 5498 5498 5498 5499 5498 5498
5316 5322 5325 5328 5330 5331 5333 5334 5334 5331 5330 5338 5345 5352 5352 5358 5364 5372 5381 5386 5387 5389 5394 5394 5399 5397 5401 5404 5415 5432 5439 5444 5452 5456 5457 5460 5463 5465 5465 5468 5472 5475 5476 5480 5484 5483 5483 5482 5482 5481 5482 5482 5482 5480
5305 5309 5312 5315 5317 5318 5318 5320 5320 5316 5321 5329 5331 5334 5340 5343 5348 5355 5363 5365 5371 5376 5374 5374 5372 5374 5383 5391 5409 5421 5423 5426 5431 5433 5435 5438 5442 5445 5446 5448 5453 5457 5459 5461 5465 5467 5467 5465 5466 5467 5467 5466 5466 5466
5292 5297 5300 5304 5306 5306 5304 5303 5306 5305 5310 5318 5317 5320 5326 5328 5335 5336 5341 5348 5354 5354 5348 5350 5355 5366 5380 5393 5402 5406 5410 5410 5412 5416 5419 5424 5428 5430 5431 5434 5437 5439 5442 5445 5448 5449 5448 5448 5449 5450 5450 5452 5451 5449
5280 5286 5290 5292 5293 5294 5292 5290 5292 5296 5299 5301 5308 5308 5309 5313 5316 5321 5327 5333 5326 5327 5331 5338 5350 5365 5375 5379 5384 5389 5393 5395 5397 5399 5403 5408 5412 5416 5417 5419 5421 5424 5428 5430 5432 5434 5434 5434 5435 5433 5434 5434 5433 5431
5273 5275 5277 5279 5280 5280 5279 5280 5282 5287 5287 5290 5293 5295 5297 5300 5304 5309 5311 5304 5308 5315 5325 5336 5346 5357 5360 5364 5369 5371 5375 5377 5380 5385 5389 5393 5396 5402 5404 5408 5409 5411 5414 5416 5418 5419 5419 5420 5419 5419 5418 5416 5415 5415
5262 5264 5265 5267 5268 5266 5267 5274 5273 5276 5276 5281 5284 5284 5287 5290 5295 5298 5293 5298 5304 5313 5319 5325 5336 5343 5346 5349 5351 5355 5361 5364 5367 5372 5375 5379 5382 5386 5390 5394 5398 5401 5402 5404 5405 5406 5405 5405 5404 5404 5403 5397 5395 5394
5252 5253 5255 5255 5253 5253 5259 5262 5265 5267 5268 5271 5275 5277 5281 5284 5288 5285 5284 5291 5299 5305 5310 5319 5325 5329 5333 5337 5342 5347 5351 5353 5356 5359 5363 5366 5371 5374 5377 5381 5381 5386 5391 5390 5390 5390 5391 5390 5391 5389 5387 5383 5379 5375
5241 5243 5242 5239 5243 5247 5250 5254 5257 5259 5261 5266 5269 5271 5276 5279 5280 5280 5284 5293 5297 5302 5305 5308 5312 5316 5322 5328 5332 5336 5338 5339 5340 5342 5347 5351 5355 5358 5362 5367 5370 5373 5375 5376 5378 5377 5376 5378 5376 5374 5373 5369 5365 5361
5227 5227 5228 5235 5240 5241 5245 5248 5252 5257 5261 5262 5265 5270 5273 5275 5277 5280 5286 5289 5292 5295 5298 5300 5302 5306 5311 5316 5320 5323 5327 5327 5329 5331 5336 5339 5342 5346 5350 5354 5358 5361 5361 5362 5364 5364 5364 5364 5364 5364 5361 5357 5354 5353
5212 5218 5226 5230 5234 5237 5240 5246 5250 5254 5257 5260 5265 5267 5269 5272 5276 5279 5280 5281 5284 5287 5288 5289 5291 5295 5300 5304 5308 5313 5315 5317 5319 5323 5324 5328 5331 5335 5339 5343 5345 5348 5349 5352 5352 5353 5353 5354 5354 5352 5351 5348 5347 5346
5206 5213 5220 5228 5228 5234 5238 5243 5246 5250 5253 5257 5261 5263 5265 5269 5271 5272 5273 5274 5277 5278 5280 5282 5284 5288 5292 5297 5300 5303 5306 5308 5311 5314 5317 5320 5323 5326 5329 5332 5334 5336 5339 5341 5342 5343 5345 5344 5344 5343 5342 5341 5340 5340
5206 5213 5218 5222 5227 5229 5236 5241 5246 5250 5252 5253 5256 5258 5260 5262 5263 5264 5267 5267 5270 5272 5274 5277 5280 5284 5287 5290 5293 5296 5298 5301 5304 5307 5310 5313 5315 5318 5320 5324 5326 5328 5329 5331 5333 5335 5335 5335 5335 5336 5336 5335 5335 5334
5207 5212 5219 5223 5228 5233 5238 5239 5243 5245 5247 5248 5249 5252 5255 5257 5259 5260 5262 5266 5268 5269 5271 5274 5276 5279 5282 5285 5288 5291 5293 5296 5298 5301 5303 5305 5308 5311 5313 5314 5316 5319 5321 5323 5325 5326 5326 5328 5329 5329 5330 5330 5330 5330
5209 5214 5219 5224 5228 5231 5234 5236 5239 5241 5242 5243 5247 5250 5252 5253 5255 5257 5260 5263 5265 5267 5268 5271 5273 5275 5278 5281 5284 5286 5288 5290 5293 5295 5297 5300 5301 5303 5304 5306 5310 5313 5315 5317 5317 5318 5320 5323 5323 5324 5324 5325 5326 5327
5210 5214 5219 5224 5227 5229 5230 5232 5235 5236 5239 5242 5244 5246 5248 5250 5253 5255 5257 5258 5260 5262 5265 5268 5271 5273 5274 5277 5279 5282 5284 5287 5289 5290 5291 5292 5293 5294 5296 5300 5304 5306 5308 5309 5309 5312 5315 5317 5317 5318 5319 5319 5322 5322
5209 5213 5217 5221 5223 5226 5229 5232 5234 5236 5238 5241 5243 5245 5247 5249 5251 5252 5253 5256 5257 5260 5262 5264 5266 5268 5270 5273 5276 5278 5281 5283 5284 5284 5286 5286 5287 5289 5292 5295 5297 5299 5299 5301 5304 5308 5311 5312 5312 5312 5314 5316 5317 5319
Wind_Speed
60 61 59 54 51 47 49 51 52 51 50 50 49 48 51 51 50 48 46 46 47 46 42 42 42 42 42 43 43 39 36 32 33 31 28 28 25 22 22 20 23 22 21 19 19 21 25 24 23 21 19 20 19 18
67 66 65 64 61 56 54 54 57 57 59 58 58 57 56 57 55 56 55 54 52 50 50 47 45 45 45 45 45 45 42 41 37 34 32 27 28 25 25 22 21 26 26 23 23 22 25 24 26 24 22 22 22 23
79 76 74 72 72 72 66 64 63 62 66 62 61 65 65 64 64 61 61 60 59 55 54 52 49 47 48 50 49 48 44 45 41 37 33 33 33 29 27 24 22 22 29 22 24 24 27 27 24 23 26 27 26 25
89 85 85 83 81 82 80 77 75 74 70 74 72 69 70 71 71 69 67 66 65 64 61 58 56 52 50 54 54 54 48 44 44 43 42 38 37 39 33 33 22 20 28 29 17 23 23 22 23 19 20 24 28 30
95 95 94 93 90 89 89 88 84 81 79 78 78 78 76 77 76 76 73 72 71 71 68 63 60 58 55 54 55 57 54 49 48 45 42 40 38 39 40 39 20 19 30 29 19 26 21 20 26 26 21 21 23 26
100 98 99 100 97 94 95 94 92 92 88 87 84 83 80 80 80 81 80 76 75 73 74 71 68 62 62 61 59 57 57 54 52 48 45 41 34 39 42 38 12 32 36 26 22 26 16 17 25 26 22 27 30 29
96 98 97 99 99 97 97 95 97 96 97 93 91 89 86 83 83 83 81 80 81 79 77 75 73 68 66 64 61 57 57 56 52 53 50 43 36 42 40 33 10 27 33 35 24 27 23 22 20 21 24 26 28 28
86 87 86 88 89 91 92 90 90 93 97 98 97 97 94 93 90 87 82 78 85 81 78 77 74 69 70 67 62 59 60 60 58 54 49 44 42 42 39 22 20 35 38 37 32 34 32 29 32 28 29 29 31 29
81 81 80 79 80 79 79 83 82 83 86 90 96 101 103 100 99 92 82 72 70 73 75 80 77 72 71 69 67 63 63 65 63 57 52 50 46 49 31 33 33 37 46 44 41 38 37 36 34 32 33 33 33 31
78 76 76 76 75 75 75 74 74 75 75 77 81 90 98 105 105 102 92 66 63 66 68 76 79 78 73 74 73 69 70 69 68 61 60 58 48 43 38 37 43 44 48 43 39 30 31 29 29 32 33 34 33 33
74 73 71 72 71 71 71 71 70 70 68 69 71 74 77 76 84 93 100 89 68 68 63 66 73 75 77 74 75 74 73 69 66 63 65 63 57 39 39 37 44 42 44 44 44 37 40 35 36 33 34 34 36 35
67 68 67 67 66 65 66 65 66 66 66 66 67 68 66 67 70 73 74 82 91 90 86 77 75 63 63 61 63 67 72 73 68 63 63 64 47 45 43 41 44 49 43 37 36 31 32 36 35 32 34 36 36 39
60 60 61 60 59 58 60 60 61 64 65 65 65 67 66 66 70 75 76 81 90 90 80 71 64 68 66 62 61 61 69 70 73 73 64 58 42 38 39 38 39 38 36 34 34 34 32 34 36 36 38 37 39 39
55 55 55 55 54 54 55 56 56 59 61 63 65 68 69 69 75 75 70 70 68 64 56 52 51 56 61 58 61 68 71 68 71 75 68 50 42 43 37 37 38 44 41 39 43 42 40 40 41 39 41 40 39 39
50 50 51 52 51 49 51 52 53 57 59 62 64 68 72 69 67 65 63 62 62 63 59 61 62 65 62 65 72 72 70 71 72 67 54 52 47 44 41 41 43 44 45 40 41 39 38 39 43 42 41 42 42 40
46 48 47 45 46 46 47 49 52 54 61 62 65 66 64 63 62 61 61 60 57 48 49 52 58 66 73 76 76 78 75 72 66 57 45 46 43 42 42 41 42 41 41 44 43 39 40 42 42 42 43 41 40 41
44 42 40 42 42 43 46 47 47 48 55 64 61 59 60 61 59 59 58 60 60 62 64 59 63 65 73 78 78 79 78 68 56 48 48 52 51 50 50 45 47 42 42 39 38 39 44 46 44 44 43 41 41 41
41 38 39 39 40 43 45 45 46 53 61 59 56 55 56 57 55 54 54 58 55 57 62 62 64 74 69 64 58 41 38 42 51 43 46 49 51 50 52 46 44 43 42 44 46 45 45 46 44 41 42 43 44 44
36 37 38 38 37 35 40 46 50 56 55 51 52 52 50 51 53 53 50 53 52 54 53 61 65 68 65 65 54 25 27 32 45 48 43 35 36 42 43 44 43 43 43 44 44 45 44 42 42 44 45 45 45 45
36 36 35 35 31 35 41 47 48 51 48 44 46 47 45 48 45 48 51 51 55 65 70 68 68 63 57 47 42 45 35 32 38 49 57 48 40 37 36 35 36 41 43 43 43 43 42 43 45 46 44 47 49 49
36 34 32 29 32 36 38 43 46 45 43 43 39 39 41 41 44 44 44 43 54 58 61 66 62 49 46 46 52 50 42 38 43 45 39 43 44 40 37 39 37 37 38 39 39 40 40 44 48 46 48 50 51 52
31 33 34 34 37 42 47 47 45 41 41 37 34 34 35 35 34 34 38 49 51 50 46 38 33 36 40 37 41 45 58 59 47 44 38 36 39 42 38 37 36 30 33 35 37 38 39 41 42 46 49 50 54 57
31 32 32 35 40 45 45 40 42 37 36 27 29 31 30 30 28 30 41 39 38 36 37 38 44 36 38 40 40 40 37 41 41 43 45 45 44 46 48 42 45 37 38 38 41 43 42 42 45 49 53 50 50 56
31 32 31 36 43 43 36 32 31 31 26 24 22 22 18 21 24 28 29 27 23 24 27 28 34 35 32 33 42 48 41 35 43 48 48 46 44 40 42 41 37 39 44 43 40 40 42 44 46 47 51 50 49 52
36 34 39 44 42 36 30 26 23 24 23 21 22 18 16 20 23 22 16 19 25 28 29 35 37 37 32 37 44 40 41 38 38 44 47 45 44 45 45 44 42 41 40 40 39 42 40 42 42 45 43 43 45 38
41 42 43 29 22 24 21 20 19 18 21 23 23 20 20 20 19 13 8 15 25 31 34 37 38 36 37 38 37 39 37 34 32 36 40 43 45 47 47 43 40 39 38 40 40 36 34 35 35 37 38 36 29 30
42 35 22 20 21 20 22 20 19 19 20 22 19 19 21 17 10 3 3 7 11 19 28 33 36 36 32 34 37 34 33 32 33 29 29 31 32 34 34 32 33 36 37 31 28 28 29 29 33 33 32 22 23 25
34 24 24 24 25 24 24 21 18 16 13 8 9 13 13 10 9 11 8 9 12 17 20 22 23 25 31 36 38 37 32 28 28 27 26 26 27 28 30 31 29 29 30 29 26 26 25 29 31 25 16 19 25 24
26 28 31 30 30 28 21 14 10 7 4 6 10 16 13 13 15 19 19 20 14 13 15 16 15 18 21 25 26 26 24 24 25 25 26 27 27 26 26 26 28 25 23 22 22 22 27 26 17 14 17 19 20 20
27 28 28 25 21 15 11 9 10 9 14 17 20 21 18 18 19 21 22 20 12 11 10 10 11 14 16 18 18 18 18 19 20 19 19 21 24 25 24 23 21 21 20 20 20 25 23 20 15 17 17 18 16 17
25 26 23 15 11 11 10 9 11 11 11 11 13 15 14 11 11 11 11 11 11 12 12 13 16 16 15 15 16 16 15 15 15 19 22 24 25 24 21 21 18 19 17 19 21 21 20 19 18 18 19 20 17 18
18 17 18 15 14 12 12 10 10 9 8 9 11 11 11 10 11 9 7 9 11 12 12 13 14 13 12 13 13 14 14 16 18 21 22 21 23 21 22 24 20 19 21 21 21 19 19 17 16 16 15 14 20 17
16 18 20 18 17 13 8 9 12 12 13 14 14 12 12 12 12 10 8 9 10 13 16 16 14 12 11 12 14 14 14 16 17 20 20 19 18 20 23 21 21 24 21 19 19 19 20 18 15 10 12 18 18 15
Wind_Direction
270 270 268 268 270 270 270 267 261 258 261 261 257 259 258 259 261 261 263 266 273 278 281 284 286 288 292 295 300 296 297 300 299 303 302 302 303 303 305 305 307 314 316 309 306 304 296 296 296 292 289 285 283 276
266 266 267 267 268 268 269 267 266 266 262 261 260 258 257 257 256 257 260 263 264 267 271 274 279 284 285 290 289 294 295 294 296 297 300 300 300 299 296 296 297 306 301 305 301 303 303 305 295 293 296 293 288 282
266 264 264 264 264 265 265 264 263 265 267 264 261 259 257 258 257 256 257 261 261 259 263 267 273 278 281 283 286 288 287 287 287 289 289 295 299 299 302 296 291 292 290 291 297 293 310 328 308 301 292 287 288 287
265 261 263 262 261 262 261 260 261 262 260 263 261 257 255 255 258 258 255 257 258 256 256 258 266 271 274 276 280 282 282 283 288 287 286 288 293 295 300 301 303 277 281 281 299 292 300 321 316 316 309 303 294 286
265 264 261 260 260 259 258 257 255 254 253 254 256 256 254 254 254 257 256 253 256 258 257 257 262 262 267 271 274 276 279 279 281 284 287 288 289 294 297 298 314 248 262 277 277 277 290 300 300 301 300 304 302 302
262 261 261 261 259 255 256 256 252 251 248 248 249 251 252 252 254 256 255 251 255 259 261 258 254 259 263 265 269 275 276 276 275 279 281 285 290 288 292 296 304 238 265 275 283 276 289 302 284 285 289 290 291 293
261 261 259 261 260 259 257 255 253 251 249 249 249 249 249 248 248 251 255 251 252 255 255 255 254 252 258 264 267 268 268 270 272 275 278 281 282 283 290 312 294 269 264 276 271 269 278 300 295 286 281 285 289 290
264 264 264 261 261 261 262 259 256 254 250 250 251 249 248 246 244 249 251 256 253 254 255 256 252 254 257 262 263 264 264 266 266 270 275 270 274 279 279 316 258 267 268 265 264 268 277 286 293 278 284 291 286 283
263 263 263 263 263 262 261 261 260 259 257 253 251 252 250 247 247 252 260 267 258 257 259 253 255 255 257 262 264 265 265 267 267 269 271 270 269 269 286 287 286 270 271 272 269 272 271 269 277 280 278 284 285 278
263 263 263 263 263 263 264 262 261 259 259 258 256 253 254 256 253 252 260 263 256 247 252 260 255 256 258 258 262 264 262 264 267 269 270 268 269 273 283 280 276 272 272 270 266 258 263 274 277 277 273 280 281 276
263 263 262 262 261 261 261 261 260 260 260 259 256 255 254 254 257 259 261 263 258 246 253 259 261 259 259 261 261 261 264 268 268 265 266 266 266 275 282 279 275 272 271 272 266 259 255 262 272 268 269 278 281 276
262 262 262 262 262 260 259 259 259 259 258 257 257 255 253 251 249 251 250 254 258 264 264 265 262 263 262 260 260 261 261 263 266 266 265 265 270 271 277 280 283 279 272 269 264 251 250 259 268 263 265 269 270 273
258 259 259 259 259 258 258 257 257 256 255 255 254 253 251 250 248 247 248 254 258 263 266 257 255 258 257 258 261 261 260 260 263 262 264 267 277 280 277 277 274 271 258 252 251 255 260 266 270 264 263 272 274 270
255 256 257 258 257 256 256 257 256 256 255 253 252 251 249 248 251 253 256 258 258 261 254 243 239 240 244 249 252 255 256 256 257 261 266 272 280 276 278 272 265 266 263 254 253 254 260 265 265 266 263 270 274 275
255 255 255 254 255 254 254 255 255 255 253 252 251 250 252 253 252 254 254 253 253 253 250 247 239 241 242 244 242 245 249 250 256 269 273 268 273 273 270 272 270 257 257 254 251 254 256 260 263 267 268 270 274 272
252 252 252 252 251 250 250 249 250 252 253 252 252 254 256 255 254 251 251 251 248 250 246 243 244 243 241 242 245 244 245 249 259 267 266 261 267 269 266 263 264 264 260 250 248 254 258 260 263 265 266 266 269 270
250 250 249 248 248 246 246 246 247 244 251 252 254 256 256 255 253 250 248 247 245 242 237 241 243 244 244 244 246 247 251 259 262 259 264 262 265 264 267 262 260 260 258 254 248 253 253 255 261 263 265 268 269 267
248 245 243 244 244 244 243 242 244 249 251 255 255 254 254 255 254 252 247 246 241 245 243 240 245 246 245 249 253 267 271 264 258 261 260 259 256 254 252 253 257 256 252 254 254 252 255 257 259 261 262 264 264 263
244 241 241 241 243 242 247 248 250 253 258 259 258 258 257 255 255 254 249 246 238 239 242 240 235 237 238 243 240 244 257 257 246 247 248 246 248 247 247 247 249 252 250 251 253 254 257 260 259 260 262 263 266 269
238 238 240 241 240 241 247 251 255 257 260 261 258 258 259 257 252 249 248 244 241 239 238 239 236 240 245 244 245 238 244 240 246 248 252 250 259 265 253 251 247 248 252 249 251 255 256 254 254 257 263 268 269 271
234 234 233 234 235 241 248 253 257 260 262 261 260 258 256 253 252 252 252 246 244 244 246 246 248 252 256 247 239 238 238 247 247 248 252 253 256 261 254 251 249 247 250 260 260 258 258 255 256 261 265 266 269 272
231 231 233 231 230 235 246 255 260 263 261 260 259 257 254 250 251 250 245 240 243 247 250 250 241 239 234 238 249 246 239 246 248 246 246 247 242 242 248 261 257 256 265 260 257 257 260 263 265 266 268 270 274 277
229 231 234 234 239 250 255 255 258 261 262 259 256 253 251 251 252 253 249 245 250 251 245 231 223 245 257 251 243 234 240 249 246 243 246 253 254 247 249 247 249 260 264 266 265 263 262 264 267 271 273 272 275 279
228 232 232 236 245 253 260 259 255 251 247 244 237 239 243 252 258 253 253 246 240 232 219 222 234 249 240 241 241 240 248 250 245 244 246 252 248 246 242 246 239 244 267 269 266 264 266 270 274 280 283 286 289 291
230 233 242 246 251 257 258 249 236 233 235 228 230 238 256 261 258 266 272 233 223 219 236 253 259 259 250 236 239 247 246 255 250 243 242 247 252 253 255 259 259 256 260 258 258 261 268 276 283 283 287 293 300 296
238 244 248 257 253 248 237 232 221 221 222 226 239 257 262 255 257 258 239 224 226 235 246 250 250 249 251 248 246 245 250 246 244 244 243 246 249 252 255 256 257 254 250 252 258 269 279 278 280 290 291 298 295 292
245 249 240 220 216 220 221 208 214 233 245 256 260 254 243 242 240 218 194 230 233 230 232 236 240 233 228 230 240 250 258 261 262 255 247 247 247 247 246 242 241 244 252 264 272 269 268 278 290 286 289 285 280 281
240 222 199 194 197 206 206 214 233 254 264 266 245 233 244 253 242 236 231 232 234 242 240 236 233 228 227 233 244 254 252 248 245 242 241 239 238 236 240 243 250 260 265 264 256 257 266 285 281 275 259 273 282 280
205 182 180 185 192 197 204 214 219 231 230 215 222 236 235 238 239 239 236 240 240 236 239 243 231 227 228 232 237 241 239 238 236 235 237 240 243 245 252 258 260 252 241 243 257 260 274 277 240 249 271 278 282 272
176 181 184 193 201 205 215 206 159 156 189 204 211 217 226 235 242 246 251 262 255 252 245 240 234 236 238 237 235 232 232 231 232 237 244 247 252 260 264 255 237 232 241 252 262 268 262 228 242 269 270 276 271 260
176 187 190 194 168 149 152 171 182 173 181 201 221 227 230 235 252 261 258 249 243 235 232 228 226 229 232 230 230 231 233 237 241 246 252 259 262 264 252 225 228 236 250 262 262 252 233 235 263 273 274 271 265 235
203 206 195 178 153 156 159 169 187 190 206 227 220 224 237 256 262 250 240 238 239 234 222 216 218 219 222 225 232 236 239 243 247 251 260 265 274 263 228 219 238 243 261 257 248 227 227 245 267 262 257 245 234 205
205 190 183 174 165 158 167 199 205 205 216 223 226 231 242 251 260 255 233 231 235 232 230 219 211 216 224 230 235 242 249 253 252 259 266 270 243 222 216 232 241 255 261 235 211 216 229 246 261 257 235 213 186 170